sat.trackr.live / text

‹ back to catalog

HERMES-6

NORAD 63489 · 2025-052BK

PAYLOAD ACTIVE UNKNOWN

§ Identity

Operator
Country
IT
Launch date
2025-03-15
Launch site
AFWTR
Launch vehicle
Mass (kg)
RCS (m²)

External: N2YO · Heavens-Above · Gunter

§ Orbital elements

Epoch: 2026-05-24T22:46:37.438752Z

Period
94.56 min
Inclination
97.4028°
Eccentricity
0.0004437
Mean motion
15.22786698 rev/d
Perigee alt
494.4 km
Apogee alt
500.5 km
Semi-major
6,875.6 km
B*
2.6426e-4
RAAN
37.7720°
Arg perigee
245.6461°
Mean anomaly
114.4313°
Rev number
6,629

§ Raw data

HERMES-61 63489U 25052BK  26144.94904443  .00006107  00000+0  26426-3 0  99942 63489  97.4028  37.7720 0004437 245.6461 114.4313 15.22786698 66298

JSON: /api/v1/satellites/63489 · /tle

For live sub-satellite position, see the globe view (requires WebGL).

§ Visibility from observer

Set your observer location to see the next 7 days of passes ≥ 10°. The values pass through the URL so the page stays shareable.

No JS? Fill the form by hand. The geolocation button needs JavaScript.

§ Radio — SatNOGS DB

ModeDescriptionDownlinkUplink
GFSK Mode U - Transmitter 401.500 MHz

1 transmitter · refreshed weekly from db.satnogs.org